N0HOT Weather Reports


Display with metric or nautical units.
time (UTC)temp
F
wind
direction
speed
MPH
gust
MPH
rain 1hr
in
rain 24hr
in
rain mn
in
humidity
%
barometer
mb
20260905004253 82 13 0.0 0.0 0.00 0.15 0.15 73 1011.8
20260905003748 82 4 0.0 0.0 0.00 0.15 0.15 73 1011.8
20260905003244 82 357 0.0 0.0 0.00 0.15 0.15 73 1011.8
20260905002740 83 356 0.0 1.0 0.00 0.15 0.15 73 1011.8
20260905002239 83 2 0.0 1.0 0.00 0.15 0.15 72 1011.8
20260905001735 84 0 0.0 0.0 0.00 0.15 0.15 72 1011.8
20260905001234 84 6 0.0 1.0 0.00 0.15 0.15 71 1011.8
20260905000729 84 8 0.0 0.0 0.00 0.15 0.15 70 1011.8
20260905000226 84 6 1.0 1.0 0.00 0.15 0.15 70 1011.5
20260904235720 84 353 0.0 0.0 0.00 0.15 0.15 68 1011.5
20260904235215 84 351 0.0 0.0 0.00 0.15 0.15 68 1011.5
20260904234709 84 351 0.0 0.0 0.00 0.15 0.15 68 1011.5
20260904234205 84 355 0.0 0.0 0.00 0.15 0.15 69 1011.5
20260904233700 85 356 0.0 0.0 0.00 0.15 0.15 69 1011.8
20260904233156 85 48 0.0 0.0 0.00 0.15 0.15 69 1011.5
20260904232653 85 48 0.0 0.0 0.00 0.15 0.15 68 1011.5
20260904232149 85 48 0.0 0.0 0.00 0.15 0.15 67 1011.8
20260904231644 86 48 0.0 1.0 0.00 0.15 0.15 67 1011.5
20260904231139 86 49 0.0 0.0 0.00 0.15 0.15 66 1011.8
20260904230638 86 48 0.0 0.0 0.00 0.15 0.15 65 1011.5
20260904230134 86 215 0.0 0.0 0.00 0.15 0.15 67 1011.8
20260904225632 86 208 0.0 0.0 0.00 0.15 0.15 67 1011.8
20260904225127 87 213 0.0 1.0 0.00 0.15 0.15 65 1012.2
20260904224621 87 267 2.0 2.0 0.00 0.15 0.15 65 1011.8
20260904224116 87 338 1.0 1.0 0.00 0.15 0.15 63 1011.8
20260904223615 87 87 0.0 0.0 0.00 0.15 0.15 63 1011.8
20260904223111 87 92 0.0 0.0 0.00 0.15 0.15 61 1012.2
20260904222607 87 4 0.0 0.0 0.00 0.15 0.15 62 1012.2
20260904222102 87 26 0.0 0.0 0.00 0.15 0.15 61 1012.2
20260904221601 87 11 0.0 0.0 0.00 0.15 0.15 62 1011.8
20260904221102 88 16 0.0 0.0 0.00 0.15 0.15 61 1012.2
20260904220556 88 68 0.0 0.0 0.00 0.15 0.15 62 1011.8
20260904220051 89 99 0.0 0.0 0.00 0.15 0.15 58 1011.5
20260904215546 89 78 0.0 1.0 0.00 0.15 0.15 59 1011.1
20260904215042 90 7 0.0 0.0 0.00 0.15 0.15 60 1011.5
20260904214537 91 270 1.0 2.0 0.00 0.15 0.15 57 1011.5
20260904214033 91 116 2.0 3.0 0.00 0.15 0.15 56 1011.8
20260904213530 90 167 0.0 1.0 0.00 0.15 0.15 56 1011.5
20260904213028 89 251 0.0 0.0 0.00 0.15 0.15 57 1011.8
20260904212526 89 119 1.0 1.0 0.00 0.15 0.15 57 1011.5
20260904212021 88 233 0.0 1.0 0.00 0.15 0.15 56 1011.8
20260904211516 88 201 0.0 1.0 0.00 0.15 0.15 58 1011.8
20260904211012 87 323 0.0 0.0 0.00 0.15 0.15 60 1011.8
20260904210511 87 264 1.0 1.0 0.00 0.15 0.15 59 1011.5
20260904210007 88 332 1.0 1.0 0.00 0.15 0.15 66 1011.5
20260904205502 88 290 1.0 1.0 0.00 0.15 0.15 65 1011.8
20260904204959 88 244 1.0 1.0 0.00 0.15 0.15 61 1011.8
20260904204454 89 317 0.0 1.0 0.00 0.15 0.15 64 1011.8
20260904203950 89 348 0.0 0.0 0.00 0.15 0.15 63 1011.5
20260904203446 90 39 0.0 0.0 0.00 0.15 0.15 65 1011.5
20260904202942 90 43 0.0 1.0 0.00 0.15 0.15 63 1011.8
20260904202438 90 290 3.0 4.0 0.00 0.15 0.15 63 1011.8
20260904201934 90 250 1.0 1.0 0.00 0.15 0.15 61 1011.5
20260904201429 90 285 0.0 1.0 0.00 0.15 0.15 59 1011.5
20260904200924 89 162 0.0 1.0 0.00 0.15 0.15 61 1011.5
20260904200422 89 264 0.0 1.0 0.00 0.15 0.15 62 1011.1
20260904195918 88 62 0.0 0.0 0.00 0.15 0.15 61 1011.1
20260904195416 88 62 0.0 0.0 0.00 0.15 0.15 62 1011.1
20260904194910 88 89 0.0 1.0 0.00 0.15 0.15 65 1011.1
20260904194410 88 158 1.0 1.0 0.00 0.15 0.15 61 1011.1
20260904193905 88 71 1.0 1.0 0.00 0.15 0.15 66 1011.1
20260904193400 88 151 1.0 1.0 0.00 0.15 0.15 68 1011.1
20260904192856 88 130 1.0 1.0 0.00 0.15 0.15 63 1011.1
20260904192351 88 64 0.0 0.0 0.00 0.15 0.15 62 1011.5
20260904191847 88 171 1.0 1.0 0.00 0.15 0.15 61 1011.5
20260904191344 88 19 0.0 0.0 0.00 0.15 0.15 62 1011.1
20260904190840 88 342 0.0 0.0 0.00 0.15 0.15 62 1011.5
20260904190335 87 313 0.0 0.0 0.00 0.15 0.15 61 1011.5
20260904185832 87 320 0.0 0.0 0.00 0.15 0.15 61 1011.1
20260904185327 86 206 0.0 1.0 0.00 0.15 0.15 64 1011.5
20260904184826 86 228 1.0 1.0 0.00 0.15 0.15 63 1011.5
20260904184322 86 149 0.0 1.0 0.00 0.15 0.15 67 1011.8
20260904183817 86 128 0.0 0.0 0.00 0.15 0.15 71 1011.5
20260904183312 86 145 1.0 1.0 0.00 0.15 0.15 69 1011.8
20260904182807 86 222 0.0 0.0 0.00 0.15 0.15 71 1011.8
20260904182306 86 142 0.0 1.0 0.00 0.15 0.15 69 1011.8
20260904181758 86 160 0.0 0.0 0.00 0.15 0.15 71 1011.5
20260904181257 85 150 0.0 0.0 0.00 0.15 0.15 69 1011.5
20260904180753 84 90 0.0 0.0 0.00 0.15 0.15 70 1011.5
20260904180249 83 105 0.0 0.0 0.00 0.15 0.15 72 1011.8
20260904175747 82 105 0.0 0.0 0.00 0.15 0.15 75 1011.8
20260904175245 81 58 0.0 0.0 0.00 0.15 0.15 78 1011.8
20260904174741 80 49 0.0 0.0 0.00 0.15 0.15 78 1011.5
20260904174237 80 46 0.0 0.0 0.00 0.15 0.15 81 1011.8
20260904173733 80 46 0.0 0.0 0.00 0.15 0.15 81 1011.8
20260904173232 79 46 0.0 0.0 0.00 0.15 0.15 81 1011.5
20260904172729 79 46 0.0 0.0 0.00 0.15 0.15 82 1011.5
20260904172228 79 46 0.0 0.0 0.00 0.15 0.15 83 1011.5
20260904171723 79 46 0.0 0.0 0.00 0.15 0.15 83 1011.8
20260904171218 79 46 0.0 0.0 0.00 0.15 0.15 82 1011.5
20260904170715 80 46 0.0 0.0 0.00 0.15 0.15 82 1011.5
20260904170210 80 46 0.0 0.0 0.00 0.15 0.15 82 1011.5
20260904165709 80 46 0.0 0.0 0.00 0.15 0.15 81 1011.8
20260904165209 80 46 0.0 0.0 0.00 0.15 0.15 81 1011.8
20260904164703 80 46 0.0 0.0 0.00 0.15 0.15 80 1011.5
20260904164158 80 46 0.0 0.0 0.00 0.15 0.15 79 1011.8
20260904163654 80 46 0.0 0.0 0.00 0.15 0.15 80 1011.8
20260904163150 81 46 0.0 0.0 0.00 0.15 0.15 80 1011.8
20260904162648 81 46 0.0 0.0 0.00 0.15 0.15 79 1011.5
20260904162143 81 46 0.0 0.0 0.00 0.15 0.15 79 1011.5
20260904161639 82 46 0.0 0.0 0.00 0.15 0.15 80 1011.8
20260904161134 82 46 0.0 0.0 0.00 0.15 0.15 81 1011.1
20260904160630 82 46 0.0 0.0 0.00 0.15 0.15 79 1011.5
20260904160126 82 46 0.0 0.0 0.00 0.15 0.15 79 1011.5
20260904155626 82 46 0.0 0.0 0.00 0.15 0.15 78 1011.5
20260904155114 82 46 0.0 0.0 0.00 0.15 0.15 78 1011.5
20260904154608 82 46 0.0 0.0 0.00 0.15 0.15 77 1011.8
20260904154102 82 46 0.0 0.0 0.00 0.15 0.15 76 1011.8
20260904153602 82 46 0.0 0.0 0.00 0.15 0.15 75 1011.5
20260904153059 82 46 0.0 0.0 0.00 0.15 0.15 77 1011.5
20260904152554 82 46 0.0 0.0 0.00 0.15 0.15 77 1011.5
20260904152049 81 46 0.0 0.0 0.00 0.15 0.15 78 1011.8
20260904151544 80 46 0.0 0.0 0.00 0.15 0.15 80 1011.8
20260904151043 80 46 0.0 0.0 0.00 0.15 0.15 79 1011.5
20260904150538 79 46 0.0 0.0 0.00 0.15 0.15 80 1011.5
20260904150033 79 46 0.0 0.0 0.00 0.15 0.15 79 1011.5
20260904145532 78 46 0.0 0.0 0.00 0.15 0.15 80 1011.5
20260904145027 78 46 0.0 0.0 0.00 0.15 0.15 82 1011.5
20260904144524 77 46 0.0 0.0 0.00 0.15 0.15 84 1011.5
20260904144020 77 46 0.0 0.0 0.00 0.15 0.15 84 1011.5
20260904143515 77 46 0.0 0.0 0.00 0.15 0.15 85 1011.5
20260904143012 77 46 0.0 0.0 0.00 0.15 0.15 85 1011.1
20260904142508 77 46 0.0 0.0 0.00 0.15 0.15 86 1011.5
20260904142008 76 47 0.0 0.0 0.00 0.15 0.15 86 1011.1
20260904141503 76 47 0.0 0.0 0.00 0.15 0.15 87 1011.1
20260904140959 76 46 0.0 0.0 0.00 0.15 0.15 88 1011.1
20260904140459 76 46 0.0 0.0 0.00 0.15 0.15 88 1011.1
20260904135957 76 46 0.0 0.0 0.00 0.15 0.15 88 1011.1
20260904135452 76 46 0.0 0.0 0.00 0.15 0.15 88 1011.1
20260904134949 76 46 0.0 0.0 0.00 0.15 0.15 88 1011.1
20260904134449 75 47 0.0 0.0 0.00 0.15 0.15 88 1011.1
20260904133943 75 47 0.0 0.0 0.00 0.15 0.15 88 1010.8
20260904133438 75 47 0.0 0.0 0.00 0.15 0.15 88 1011.5
20260904132934 75 47 0.0 0.0 0.00 0.15 0.15 88 1011.1
20260904132429 75 47 0.0 0.0 0.00 0.15 0.15 88 1011.5
20260904131928 75 47 0.0 0.0 0.00 0.15 0.15 88 1011.1
20260904131423 75 47 0.0 0.0 0.00 0.15 0.15 88 1011.1
20260904130913 74 47 0.0 0.0 0.00 0.15 0.15 88 1011.1
20260904130412 74 47 0.0 0.0 0.00 0.15 0.15 88 1011.1
20260904125907 74 47 0.0 0.0 0.00 0.15 0.15 88 1011.1
20260904125404 74 47 0.0 0.0 0.00 0.15 0.15 88 1010.8
20260904124903 74 47 0.0 0.0 0.00 0.15 0.15 88 1011.1
20260904124400 74 47 0.0 0.0 0.00 0.15 0.15 87 1010.8
20260904123854 74 47 0.0 0.0 0.00 0.15 0.15 87 1010.8
20260904123349 74 47 0.0 0.0 0.00 0.15 0.15 87 1010.8
20260904122839 74 47 0.0 0.0 0.00 0.15 0.15 87 1010.8
20260904122338 74 47 0.0 0.0 0.00 0.15 0.15 86 1010.5
20260904121833 74 47 0.0 0.0 0.00 0.15 0.15 86 1010.5
20260904121330 74 47 0.0 0.0 0.00 0.15 0.15 86 1010.5
20260904120826 74 47 1.0 1.0 0.00 0.15 0.15 86 1010.5
20260904120321 75 47 0.0 0.0 0.00 0.15 0.15 85 1010.1
20260904115816 75 47 0.0 0.0 0.00 0.15 0.15 85 1010.1
20260904115312 75 47 0.0 0.0 0.07 0.15 0.15 84 1010.5
20260904114811 75 47 0.0 0.0 0.07 0.15 0.15 84 1010.5
20260904114306 75 47 1.0 1.0 0.78 0.14 0.14 83 1010.1
20260904113801 75 18 1.0 2.0 0.78 0.13 0.13 83 1010.5
20260904113300 75 35 0.0 0.0 0.00 0.00 0.00 82 1010.1
20260904112755 75 33 0.0 0.0 0.00 0.00 0.00 82 1010.5
20260904112251 75 33 0.0 0.0 0.00 0.00 0.00 82 1010.1
20260904111746 75 33 0.0 0.0 0.00 0.00 0.00 81 1010.1
20260904111242 76 33 0.0 0.0 0.00 0.00 0.00 81 1010.1
20260904110738 76 33 0.0 0.0 0.00 0.00 0.00 81 1010.1
20260904110236 76 33 0.0 0.0 0.00 0.00 0.00 81 1010.1
20260904105732 76 33 0.0 0.0 0.00 0.00 0.00 81 1009.8
20260904105226 76 33 0.0 0.0 0.00 0.00 0.00 81 1009.8
20260904104722 76 33 0.0 0.0 0.00 0.00 0.00 81 1009.8
20260904104217 76 33 0.0 0.0 0.00 0.00 0.00 81 1010.5
20260904103715 76 33 0.0 0.0 0.00 0.00 0.00 81 1010.1
20260904103209 76 33 0.0 1.0 0.00 0.00 0.00 81 1010.1
20260904102705 76 33 0.0 0.0 0.00 0.00 0.00 82 1010.1
20260904102200 76 33 0.0 0.0 0.00 0.00 0.00 82 1010.1
20260904101657 76 33 0.0 0.0 0.00 0.00 0.00 82 1010.1
20260904101152 76 33 0.0 0.0 0.00 0.00 0.00 82 1010.1
20260904100648 77 33 0.0 0.0 0.00 0.00 0.00 81 1009.8
20260904100143 77 33 0.0 0.0 0.00 0.00 0.00 81 1010.5
20260904095643 77 33 0.0 0.0 0.00 0.00 0.00 81 1010.5
20260904095137 77 33 0.0 0.0 0.00 0.00 0.00 81 1010.1
20260904094633 77 33 0.0 0.0 0.00 0.00 0.00 81 1010.1
20260904094133 77 33 0.0 0.0 0.00 0.00 0.00 81 1010.1
20260904093630 77 33 0.0 0.0 0.00 0.00 0.00 81 1010.5
20260904093129 77 33 0.0 0.0 0.00 0.00 0.00 81 1010.5
20260904092626 77 33 0.0 0.0 0.00 0.00 0.00 81 1010.1
20260904092122 77 33 0.0 0.0 0.00 0.00 0.00 81 1009.8
20260904091618 77 33 0.0 0.0 0.00 0.00 0.00 81 1010.1
20260904091117 77 33 0.0 0.0 0.00 0.00 0.00 81 1010.1
20260904090613 77 33 0.0 0.0 0.00 0.00 0.00 81 1010.1
20260904090109 77 33 0.0 0.0 0.00 0.00 0.00 80 1010.1
20260904085603 77 33 0.0 0.0 0.00 0.00 0.00 80 1010.1
20260904085103 78 33 0.0 0.0 0.00 0.00 0.00 80 1010.1
20260904084558 78 33 0.0 0.0 0.00 0.00 0.00 80 1010.1
20260904084055 78 33 0.0 0.0 0.00 0.00 0.00 80 1009.8
20260904083550 78 32 0.0 0.0 0.00 0.00 0.00 80 1009.8
20260904083046 78 28 0.0 0.0 0.00 0.00 0.00 79 1009.8
20260904082541 78 43 0.0 0.0 0.00 0.00 0.00 80 1009.8
20260904082036 78 43 0.0 0.0 0.00 0.00 0.00 80 1009.8
20260904081531 78 43 0.0 0.0 0.00 0.00 0.00 80 1009.4
20260904081027 78 43 0.0 1.0 0.00 0.00 0.00 80 1009.4
20260904080522 78 43 0.0 0.0 0.00 0.00 0.00 81 1009.4
20260904080018 78 31 0.0 0.0 0.00 0.00 0.00 81 1009.4
20260904075514 78 31 0.0 1.0 0.00 0.00 0.00 80 1009.4
20260904075009 77 31 0.0 0.0 0.00 0.00 0.00 81 1009.4
20260904074503 77 31 1.0 1.0 0.00 0.00 0.00 81 1009.4
20260904073957 77 31 1.0 1.0 0.00 0.00 0.00 82 1009.4
20260904073453 77 30 1.0 1.0 0.00 0.00 0.00 83 1009.8
20260904072949 77 30 0.0 0.0 0.00 0.00 0.00 84 1009.4
20260904072445 77 30 0.0 0.0 0.00 0.00 0.00 85 1009.8
20260904071945 77 30 0.0 1.0 0.00 0.00 0.00 86 1009.8
20260904071441 77 30 1.0 1.0 0.00 0.00 0.00 87 1009.4
20260904070935 77 30 1.0 1.0 0.00 0.00 0.00 87 1009.8
20260904070433 77 30 1.0 1.0 0.00 0.00 0.00 87 1009.8
20260904065928 77 30 0.0 0.0 0.00 0.00 0.00 87 1010.1
20260904065424 77 30 0.0 0.0 0.00 0.00 0.00 87 1009.8
20260904064924 77 31 0.0 1.0 0.00 0.00 0.00 87 1010.1
20260904064420 77 342 0.0 0.0 0.00 0.00 0.00 87 1009.8
20260904063910 77 339 0.0 0.0 0.00 0.00 0.00 86 1009.8
20260904063407 77 331 0.0 0.0 0.00 0.00 0.00 86 1010.1
20260904062907 77 307 0.0 1.0 0.00 0.00 0.00 86 1010.1
20260904062403 77 228 0.0 0.0 0.00 0.00 0.00 86 1010.1
20260904061859 77 175 0.0 0.0 0.00 0.00 0.00 86 1010.1
20260904061355 77 124 0.0 0.0 0.00 0.00 0.00 86 1010.5
20260904060851 77 87 0.0 0.0 0.00 0.00 0.00 86 1010.1
20260904060347 77 87 0.0 0.0 0.00 0.00 0.00 86 1010.5
20260904055841 77 87 0.0 0.0 0.00 0.00 0.00 86 1010.5
20260904055337 77 87 0.0 0.0 0.00 0.00 0.00 86 1010.5
20260904054832 77 87 0.0 0.0 0.00 0.00 0.00 86 1010.5
20260904054328 77 87 0.0 0.0 0.00 0.00 0.00 86 1010.5
20260904053824 77 87 0.0 0.0 0.00 0.00 0.00 86 1010.8
20260904053323 77 87 0.0 0.0 0.00 0.00 0.00 86 1010.5
20260904052819 77 87 0.0 0.0 0.00 0.00 0.00 86 1010.5
20260904052315 77 87 0.0 0.0 0.00 0.00 0.00 86 1010.5
20260904051811 77 87 0.0 0.0 0.00 0.00 0.00 86 1010.5
20260904051307 77 87 0.0 0.0 0.00 0.00 0.00 86 1010.5
20260904050802 77 87 0.0 0.0 0.00 0.00 0.00 86 1010.8
20260904050258 77 87 0.0 0.0 0.00 0.00 0.00 86 1010.5
20260904045753 77 87 0.0 0.0 0.00 0.20 0.20 85 1010.5
20260904045247 77 87 0.0 0.0 0.00 0.20 0.20 85 1010.5
20260904044742 77 87 0.0 0.0 0.00 0.20 0.20 85 1010.8
20260904044239 77 87 0.0 0.0 0.00 0.20 0.20 85 1010.5
20260904043734 77 87 0.0 0.0 0.00 0.20 0.20 85 1010.5
20260904043231 77 87 0.0 0.0 0.00 0.20 0.20 85 1010.5
20260904042726 77 87 0.0 0.0 0.00 0.20 0.20 85 1010.8
20260904042223 77 87 0.0 0.0 0.00 0.20 0.20 85 1010.8
20260904041722 77 87 0.0 0.0 0.00 0.20 0.20 85 1010.8
20260904041218 77 87 0.0 0.0 0.00 0.20 0.20 86 1010.8
20260904040714 77 87 0.0 0.0 0.00 0.20 0.20 86 1010.5
20260904040209 77 87 0.0 0.0 0.00 0.20 0.20 86 1010.8
20260904035705 77 87 0.0 0.0 0.00 0.20 0.20 86 1010.8
20260904035200 77 87 0.0 0.0 0.00 0.20 0.20 86 1010.8
20260904034659 76 87 0.0 1.0 0.00 0.20 0.20 87 1010.8
20260904034155 76 87 0.0 0.0 0.00 0.20 0.20 87 1010.8
20260904033651 76 87 0.0 0.0 0.00 0.20 0.20 87 1010.8
20260904033148 76 87 0.0 0.0 0.00 0.20 0.20 87 1010.8
20260904032643 76 87 0.0 0.0 0.00 0.20 0.20 87 1010.5
20260904032142 76 87 0.0 0.0 0.00 0.20 0.20 87 1010.5
20260904031642 76 87 0.0 0.0 0.00 0.20 0.20 87 1010.5
20260904031138 76 87 1.0 1.0 0.00 0.20 0.20 86 1010.1
20260904030633 76 87 1.0 1.0 0.00 0.20 0.20 86 1010.5
20260904030128 76 87 1.0 1.0 0.00 0.20 0.20 85 1010.5
20260904025625 76 87 0.0 0.0 0.00 0.20 0.20 85 1010.8
20260904025119 76 87 0.0 0.0 0.00 0.20 0.20 85 1010.8
20260904024614 76 87 0.0 0.0 0.00 0.20 0.20 84 1010.8
20260904024110 77 87 0.0 0.0 0.00 0.20 0.20 84 1011.1
20260904023601 77 87 0.0 0.0 0.00 0.20 0.20 83 1011.1
20260904023056 77 87 0.0 0.0 0.00 0.20 0.20 83 1010.8
20260904022556 77 87 0.0 0.0 0.00 0.20 0.20 83 1010.8
20260904022053 77 87 0.0 0.0 0.00 0.20 0.20 82 1010.8
20260904021548 77 87 0.0 0.0 0.00 0.20 0.20 82 1011.1
20260904021043 77 87 0.0 0.0 0.00 0.20 0.20 82 1010.5
20260904020538 77 87 0.0 0.0 0.00 0.20 0.20 81 1010.8
20260904020033 77 87 0.0 0.0 0.00 0.20 0.20 81 1010.5
20260904015527 77 87 0.0 0.0 0.00 0.20 0.20 81 1010.5
20260904015026 78 87 0.0 0.0 0.00 0.20 0.20 81 1010.5
20260904014520 78 87 0.0 0.0 0.00 0.20 0.20 81 1010.5
20260904014016 78 87 0.0 0.0 0.00 0.20 0.20 80 1010.1
20260904013512 78 87 0.0 0.0 0.00 0.20 0.20 80 1010.5
20260904013009 78 87 0.0 0.0 0.00 0.20 0.20 80 1010.5
20260904012509 78 87 0.0 0.0 0.00 0.20 0.20 79 1010.1
20260904012002 78 87 0.0 0.0 0.00 0.20 0.20 79 1010.5
20260904011457 78 87 0.0 0.0 0.00 0.20 0.20 79 1010.1
20260904010952 78 87 0.0 0.0 0.00 0.20 0.20 79 1010.5
20260904010449 78 87 0.0 0.0 0.00 0.20 0.20 79 1010.1
20260904005949 78 87 0.0 0.0 0.00 0.20 0.20 78 1010.1
20260904005445 79 87 0.0 0.0 0.00 0.20 0.20 78 1010.1
20260904004939 79 87 0.0 0.0 0.00 0.20 0.20 78 1010.1